,,,PA_Meas_PMT16A,,PR_Meas_QMR101_102,,RH_Meas_QMH101,,SR_Meas_QMS101,,TA_Meas_QMH101,,GenWind,,GenWind,
date,time,status,PA,status,PR,status,RH,status,SR,status,TA,status,DirAvg,status,SpdAvg,
2009-12-13, 00:00:04,VALID,1009.87,VALID,0,VALID,55.6146,VALID,0.105969,VALID,24.4327,VALID,222,VALID,0,
2009-12-13, 00:01:04,VALID,1009.87,VALID,0,VALID,55.6299,VALID,0.105969,VALID,24.4522,VALID,222,VALID,0,
2009-12-13, 00:02:04,VALID,1009.86,VALID,0,VALID,55.5917,VALID,0.105969,VALID,24.4522,VALID,221,VALID,0,
2009-12-13, 00:03:04,VALID,1009.82,VALID,0,VALID,55.6451,VALID,0.105969,VALID,24.4522,VALID,209,VALID,0,
2009-12-13, 00:04:04,VALID,1009.85,VALID,0,VALID,55.6604,VALID,0,VALID,24.454,VALID,208,VALID,0,
2009-12-13, 00:05:04,VALID,1009.84,VALID,0,VALID,55.6833,VALID,0,VALID,24.4132,VALID,192,VALID,0.510547,
2009-12-13, 00:06:04,VALID,1009.82,VALID,0,VALID,55.6527,VALID,0,VALID,24.4132,VALID,212,VALID,0.370313,
2009-12-13, 00:07:04,VALID,1009.77,VALID,0,VALID,55.6222,VALID,0,VALID,24.4327,VALID,212,VALID,0.367969,
2009-12-13, 00:08:04,VALID,1009.77,VALID,0,VALID,55.6451,VALID,0,VALID,24.454,VALID,230,VALID,0.719922,
2009-12-13, 00:09:04,VALID,1009.78,VALID,0,VALID,55.6222,VALID,0.105969,VALID,24.454,VALID,209,VALID,0.375,
2009-12-13, 00:10:04,VALID,1009.78,VALID,0,VALID,55.6222,VALID,0,VALID,24.4345,VALID,209,VALID,0.321484,
2009-12-13, 00:11:04,VALID,1009.78,VALID,0,VALID,55.5841,VALID,0.105969,VALID,24.4345,VALID,209,VALID,0.333984,
2009-12-13, 00:12:04,VALID,1009.79,VALID,0,VALID,55.5917,VALID,0,VALID,24.3937,VALID,209,VALID,0.455469,
2009-12-13, 00:13:04,VALID,1009.79,VALID,0,VALID,55.5765,VALID,0.105969,VALID,24.3937,VALID,210,VALID,0.409375,
2009-12-13, 00:14:04,VALID,1009.8,VALID,0,VALID,55.5841,VALID,0,VALID,24.3937,VALID,210,VALID,0.429688,
2009-12-13, 00:15:04,VALID,1009.8,VALID,0,VALID,55.5841,VALID,0.105969,VALID,24.3937,VALID,210,VALID,0.261328,
2009-12-13, 00:16:04,VALID,1009.78,VALID,0,VALID,55.5612,VALID,0.105969,VALID,24.3742,VALID,202,VALID,1.06211,
2009-12-13, 00:17:04,VALID,1009.77,VALID,0,VALID,55.5079,VALID,0,VALID,24.3937,VALID,202,VALID,0.744141,
2009-12-13, 00:18:04,VALID,1009.75,VALID,0,VALID,55.5384,VALID,0.105969,VALID,24.3937,VALID,201,VALID,0.380469,
2009-12-13, 00:19:04,VALID,1009.77,VALID,0,VALID,55.5765,VALID,0,VALID,24.3937,VALID,208,VALID,0.407422,
2009-12-13, 00:20:04,VALID,1009.72,VALID,0,VALID,55.5231,VALID,0.105969,VALID,24.3742,VALID,208,VALID,0.516406,
2009-12-13, 00:21:04,VALID,1009.72,VALID,0,VALID,55.5841,VALID,0.105969,VALID,24.3547,VALID,211,VALID,0.706641,
2009-12-13, 00:22:04,VALID,1009.67,VALID,0,VALID,55.5994,VALID,0,VALID,24.3547,VALID,206,VALID,0.309766,
2009-12-13, 00:23:04,VALID,1009.68,VALID,0,VALID,55.6375,VALID,0.105969,VALID,24.3352,VALID,202,VALID,0.657031,
2009-12-13, 00:24:04,VALID,1009.66,VALID,0,VALID,55.6299,VALID,0.105969,VALID,24.3352,VALID,212,VALID,0.535937,
2009-12-13, 00:25:04,VALID,1009.65,VALID,0,VALID,55.6451,VALID,0,VALID,24.3352,VALID,211,VALID,0.276563,
2009-12-13, 00:26:04,VALID,1009.63,VALID,0,VALID,55.7443,VALID,0,VALID,24.2981,VALID,189,VALID,0.459766,
2009-12-13, 00:27:04,VALID,1009.62,VALID,0,VALID,55.7443,VALID,0,VALID,24.2786,VALID,181,VALID,0.525781,
2009-12-13, 00:28:04,VALID,1009.61,VALID,0,VALID,55.8053,VALID,0,VALID,24.2591,VALID,181,VALID,0.458594,
2009-12-13, 00:29:04,VALID,1009.58,VALID,0,VALID,55.8434,VALID,0,VALID,24.261,VALID,177,VALID,0.314453,
2009-12-13, 00:30:04,VALID,1009.56,VALID,0,VALID,55.851,VALID,0,VALID,24.2202,VALID,177,VALID,0.408594,
2009-12-13, 00:31:04,VALID,1009.54,VALID,0,VALID,55.8968,VALID,0,VALID,24.2007,VALID,168,VALID,0.4375,
2009-12-13, 00:32:04,VALID,1009.52,VALID,0,VALID,55.9349,VALID,0,VALID,24.222,VALID,168,VALID,0.0804688,
2009-12-13, 00:33:04,VALID,1009.49,VALID,0,VALID,55.9883,VALID,0,VALID,24.2025,VALID,168,VALID,0,
2009-12-13, 00:34:04,VALID,1009.49,VALID,0,VALID,56.0188,VALID,0,VALID,24.1617,VALID,168,VALID,0,
2009-12-13, 00:35:04,VALID,1009.47,VALID,0,VALID,56.0417,VALID,0,VALID,24.1617,VALID,168,VALID,0.0753906,
2009-12-13, 00:36:04,VALID,1009.47,VALID,0,VALID,56.0798,VALID,0,VALID,24.183,VALID,168,VALID,0.280469,
2009-12-13, 00:37:04,VALID,1009.47,VALID,0,VALID,56.1027,VALID,0,VALID,24.1635,VALID,165,VALID,0.419531,
2009-12-13, 00:38:04,VALID,1009.47,VALID,0,VALID,56.1103,VALID,0,VALID,24.1422,VALID,145,VALID,0.536719,
2009-12-13, 00:39:04,VALID,1009.49,VALID,0,VALID,56.095,VALID,0,VALID,24.1422,VALID,137,VALID,0.357031,
2009-12-13, 00:40:04,VALID,1009.48,VALID,0,VALID,56.1408,VALID,0,VALID,24.1422,VALID,136,VALID,0.539063,
2009-12-13, 00:41:04,VALID,1009.49,VALID,0,VALID,56.1103,VALID,0,VALID,24.1617,VALID,122,VALID,0.522266,
2009-12-13, 00:42:04,VALID,1009.45,VALID,0,VALID,56.1484,VALID,0,VALID,24.1617,VALID,121,VALID,0.271875,
2009-12-13, 00:43:04,VALID,1009.45,VALID,0,VALID,56.1408,VALID,0,VALID,24.1617,VALID,121,VALID,0.387891,
2009-12-13, 00:44:04,VALID,1009.46,VALID,0,VALID,56.1789,VALID,0,VALID,24.1617,VALID,121,VALID,0,
2009-12-13, 00:45:04,VALID,1009.42,VALID,0,VALID,56.2247,VALID,0,VALID,24.1617,VALID,124,VALID,0,
2009-12-13, 00:46:04,VALID,1009.41,VALID,0,VALID,56.2247,VALID,0,VALID,24.183,VALID,124,VALID,0,
2009-12-13, 00:47:04,VALID,1009.39,VALID,0,VALID,56.2628,VALID,0,VALID,24.1617,VALID,124,VALID,0,
2009-12-13, 00:48:04,VALID,1009.38,VALID,0,VALID,56.2933,VALID,0,VALID,24.1422,VALID,125,VALID,0,
2009-12-13, 00:49:04,VALID,1009.37,VALID,0,VALID,56.2933,VALID,0,VALID,24.1422,VALID,125,VALID,0,
2009-12-13, 00:50:04,VALID,1009.36,VALID,0,VALID,56.3238,VALID,0,VALID,24.1227,VALID,125,VALID,0,
2009-12-13, 00:51:04,VALID,1009.35,VALID,0,VALID,56.3086,VALID,0,VALID,24.144,VALID,125,VALID,0,
2009-12-13, 00:52:04,VALID,1009.34,VALID,0,VALID,56.3314,VALID,0,VALID,24.144,VALID,125,VALID,0,
2009-12-13, 00:53:04,VALID,1009.31,VALID,0,VALID,56.3391,VALID,0,VALID,24.1032,VALID,125,VALID,0,
2009-12-13, 00:54:04,VALID,1009.29,VALID,0,VALID,56.3314,VALID,0,VALID,24.1032,VALID,125,VALID,0,
2009-12-13, 00:55:04,VALID,1009.3,VALID,0,VALID,56.3924,VALID,0,VALID,24.1032,VALID,125,VALID,0,
2009-12-13, 00:56:04,VALID,1009.32,VALID,0,VALID,56.3848,VALID,0,VALID,24.0856,VALID,125,VALID,0,
2009-12-13, 00:57:04,VALID,1009.32,VALID,0,VALID,56.3924,VALID,0,VALID,24.0856,VALID,125,VALID,0,
2009-12-13, 00:58:04,VALID,1009.27,VALID,0,VALID,56.4077,VALID,0,VALID,24.0661,VALID,125,VALID,0,
2009-12-13, 00:59:04,VALID,1009.29,VALID,0,VALID,56.4458,VALID,0,VALID,24.0448,VALID,125,VALID,0,
2009-12-13, 01:00:04,VALID,1009.27,VALID,0,VALID,56.4458,VALID,0,VALID,24.0253,VALID,125,VALID,0,
2009-12-13, 01:01:04,VALID,1009.27,VALID,0,VALID,56.4687,VALID,0,VALID,24.0058,VALID,125,VALID,0,
2009-12-13, 01:02:04,VALID,1009.26,VALID,0,VALID,56.4687,VALID,0,VALID,24.0058,VALID,125,VALID,0,
2009-12-13, 01:03:04,VALID,1009.25,VALID,0,VALID,56.4763,VALID,0,VALID,23.9863,VALID,125,VALID,0,
2009-12-13, 01:04:04,VALID,1009.22,VALID,0,VALID,56.4992,VALID,0,VALID,23.9863,VALID,125,VALID,0,
2009-12-13, 01:05:04,VALID,1009.21,VALID,0,VALID,56.4916,VALID,0,VALID,24.0271,VALID,125,VALID,0,
2009-12-13, 01:06:04,VALID,1009.21,VALID,0,VALID,56.4992,VALID,0,VALID,24.0076,VALID,125,VALID,0,
2009-12-13, 01:07:04,VALID,1009.2,VALID,0,VALID,56.4763,VALID,0,VALID,24.0058,VALID,125,VALID,0,
2009-12-13, 01:08:04,VALID,1009.16,VALID,0,VALID,56.5145,VALID,0,VALID,24.0271,VALID,125,VALID,0,
2009-12-13, 01:09:04,VALID,1009.16,VALID,0,VALID,56.5373,VALID,0,VALID,24.0076,VALID,125,VALID,0,
2009-12-13, 01:10:04,VALID,1009.18,VALID,0,VALID,56.5755,VALID,0,VALID,23.9881,VALID,125,VALID,0,
2009-12-13, 01:11:04,VALID,1009.15,VALID,0,VALID,56.5755,VALID,0,VALID,23.9668,VALID,125,VALID,0,
2009-12-13, 01:12:04,VALID,1009.17,VALID,0,VALID,56.5983,VALID,0,VALID,23.926,VALID,125,VALID,0,
2009-12-13, 01:13:04,VALID,1009.14,VALID,0,VALID,56.6136,VALID,0,VALID,23.9065,VALID,125,VALID,0,
2009-12-13, 01:14:04,VALID,1009.16,VALID,0,VALID,56.6212,VALID,0.105969,VALID,23.926,VALID,125,VALID,0,
2009-12-13, 01:15:04,VALID,1009.15,VALID,0,VALID,56.5907,VALID,0,VALID,23.9473,VALID,125,VALID,0,
2009-12-13, 01:16:04,VALID,1009.14,VALID,0,VALID,56.606,VALID,0,VALID,23.926,VALID,125,VALID,0,
2009-12-13, 01:17:04,VALID,1009.12,VALID,0,VALID,56.606,VALID,0,VALID,23.9065,VALID,123,VALID,0,
2009-12-13, 01:18:04,VALID,1009.17,VALID,0,VALID,56.606,VALID,0.105969,VALID,23.926,VALID,114,VALID,0,
2009-12-13, 01:19:04,VALID,1009.13,VALID,0,VALID,56.6212,VALID,0,VALID,23.9278,VALID,107,VALID,0.053125,
2009-12-13, 01:20:04,VALID,1009.14,VALID,0,VALID,56.5831,VALID,0.105969,VALID,23.926,VALID,93,VALID,0.901563,
2009-12-13, 01:21:04,VALID,1009.15,VALID,0,VALID,56.5755,VALID,0,VALID,23.926,VALID,107,VALID,0.6875,
2009-12-13, 01:22:04,VALID,1009.16,VALID,0,VALID,56.4992,VALID,0,VALID,23.9473,VALID,104,VALID,0.568359,
2009-12-13, 01:23:04,VALID,1009.12,VALID,0,VALID,56.5068,VALID,0.105969,VALID,23.9473,VALID,103,VALID,0.499219,
2009-12-13, 01:24:04,VALID,1009.11,VALID,0,VALID,56.545,VALID,0,VALID,23.9473,VALID,103,VALID,0.0835937,
2009-12-13, 01:25:04,VALID,1009.1,VALID,0,VALID,56.5678,VALID,0.105969,VALID,23.9065,VALID,103,VALID,0.360547,
2009-12-13, 01:26:04,VALID,1009.06,VALID,0,VALID,56.6136,VALID,0,VALID,23.9065,VALID,103,VALID,0,
2009-12-13, 01:27:04,VALID,1009.06,VALID,0,VALID,56.6288,VALID,0.105969,VALID,23.9084,VALID,103,VALID,0,
2009-12-13, 01:28:04,VALID,1009.08,VALID,0,VALID,56.6365,VALID,0.105969,VALID,23.9084,VALID,103,VALID,0,
2009-12-13, 01:29:04,VALID,1009.08,VALID,0,VALID,56.6365,VALID,0,VALID,23.8889,VALID,103,VALID,0,
2009-12-13, 01:30:04,VALID,1009.07,VALID,0,VALID,56.6517,VALID,0,VALID,23.8694,VALID,103,VALID,0,
2009-12-13, 01:31:04,VALID,1009.1,VALID,0,VALID,56.6822,VALID,0,VALID,23.8694,VALID,103,VALID,0,
2009-12-13, 01:32:04,VALID,1009.06,VALID,0,VALID,56.7204,VALID,0,VALID,23.8286,VALID,79,VALID,0,
2009-12-13, 01:33:04,VALID,1009.07,VALID,0,VALID,56.7509,VALID,0,VALID,23.8091,VALID,79,VALID,0,
2009-12-13, 01:34:04,VALID,1009.05,VALID,0,VALID,56.7509,VALID,0,VALID,23.7896,VALID,63,VALID,0,
2009-12-13, 01:35:04,VALID,1009.03,VALID,0,VALID,56.7509,VALID,0,VALID,23.7507,VALID,63,VALID,0,
2009-12-13, 01:36:04,VALID,1008.96,VALID,0,VALID,56.8042,VALID,0.105969,VALID,23.7525,VALID,63,VALID,0,
2009-12-13, 01:37:04,VALID,1008.96,VALID,0,VALID,56.8195,VALID,0.105969,VALID,23.7525,VALID,63,VALID,0.508594,
2009-12-13, 01:38:04,VALID,1008.98,VALID,0,VALID,56.7966,VALID,0,VALID,23.7312,VALID,73,VALID,0.474219,
2009-12-13, 01:39:04,VALID,1008.95,VALID,0,VALID,56.8119,VALID,0.105969,VALID,23.7117,VALID,73,VALID,0.451172,
2009-12-13, 01:40:04,VALID,1008.92,VALID,0,VALID,56.8119,VALID,0.105969,VALID,23.7117,VALID,73,VALID,0.303516,
2009-12-13, 01:41:04,VALID,1008.88,VALID,0,VALID,56.8271,VALID,0.105969,VALID,23.7135,VALID,73,VALID,0,
2009-12-13, 01:42:04,VALID,1008.87,VALID,0,VALID,56.8271,VALID,0.105969,VALID,23.6727,VALID,73,VALID,0,
2009-12-13, 01:43:04,VALID,1008.86,VALID,0,VALID,56.8271,VALID,0,VALID,23.6727,VALID,73,VALID,0.165625,
2009-12-13, 01:44:04,VALID,1008.83,VALID,0,VALID,56.8271,VALID,0,VALID,23.6727,VALID,73,VALID,0,
2009-12-13, 01:45:04,VALID,1008.82,VALID,0,VALID,56.8424,VALID,0,VALID,23.694,VALID,73,VALID,0,
2009-12-13, 01:46:04,VALID,1008.81,VALID,0,VALID,56.8195,VALID,0.105969,VALID,23.6745,VALID,73,VALID,0,
2009-12-13, 01:47:04,VALID,1008.79,VALID,0,VALID,56.8424,VALID,0,VALID,23.6745,VALID,73,VALID,0,
2009-12-13, 01:48:04,VALID,1008.76,VALID,0,VALID,56.85,VALID,0.105969,VALID,23.6532,VALID,73,VALID,0,
2009-12-13, 01:49:04,VALID,1008.75,VALID,0,VALID,56.8729,VALID,0,VALID,23.6745,VALID,73,VALID,0.0078125,
2009-12-13, 01:50:04,VALID,1008.74,VALID,0,VALID,56.9034,VALID,0.105969,VALID,23.6338,VALID,70,VALID,0.311719,
2009-12-13, 01:51:04,VALID,1008.74,VALID,0,VALID,56.9034,VALID,0,VALID,23.6356,VALID,70,VALID,0.0328125,
2009-12-13, 01:52:04,VALID,1008.73,VALID,0,VALID,56.8805,VALID,0.105969,VALID,23.6356,VALID,70,VALID,0,
2009-12-13, 01:53:04,VALID,1008.69,VALID,0,VALID,56.9186,VALID,0,VALID,23.5948,VALID,70,VALID,0,
2009-12-13, 01:54:04,VALID,1008.67,VALID,0,VALID,56.9186,VALID,0,VALID,23.6161,VALID,70,VALID,0,
2009-12-13, 01:55:04,VALID,1008.66,VALID,0,VALID,56.911,VALID,0,VALID,23.6161,VALID,70,VALID,0,
2009-12-13, 01:56:04,VALID,1008.66,VALID,0,VALID,56.8881,VALID,0,VALID,23.6143,VALID,70,VALID,0,
2009-12-13, 01:57:04,VALID,1008.64,VALID,0,VALID,56.9034,VALID,0,VALID,23.5948,VALID,70,VALID,0,
2009-12-13, 01:58:04,VALID,1008.62,VALID,0,VALID,56.9263,VALID,0,VALID,23.6161,VALID,70,VALID,0,
2009-12-13, 01:59:04,VALID,1008.6,VALID,0,VALID,56.9339,VALID,0,VALID,23.5753,VALID,48,VALID,0,
2009-12-13, 02:00:04,VALID,1008.63,VALID,0,VALID,56.9644,VALID,0,VALID,23.5558,VALID,48,VALID,0,
2009-12-13, 02:01:04,VALID,1008.6,VALID,0,VALID,56.9644,VALID,0.105969,VALID,23.5363,VALID,48,VALID,0,
2009-12-13, 02:02:04,VALID,1008.59,VALID,0,VALID,56.9415,VALID,0,VALID,23.5169,VALID,48,VALID,0,
2009-12-13, 02:03:04,VALID,1008.58,VALID,0,VALID,56.9491,VALID,0,VALID,23.4779,VALID,48,VALID,0,
2009-12-13, 02:04:04,VALID,1008.6,VALID,0,VALID,56.972,VALID,0,VALID,23.4779,VALID,48,VALID,0,
2009-12-13, 02:05:04,VALID,1008.57,VALID,0,VALID,56.9949,VALID,0,VALID,23.4992,VALID,48,VALID,0,
2009-12-13, 02:06:04,VALID,1008.56,VALID,0,VALID,56.9186,VALID,0,VALID,23.4797,VALID,48,VALID,0,
2009-12-13, 02:07:04,VALID,1008.57,VALID,0,VALID,56.9491,VALID,0,VALID,23.4584,VALID,48,VALID,0,
2009-12-13, 02:08:04,VALID,1008.55,VALID,0,VALID,57.0483,VALID,0,VALID,23.4602,VALID,48,VALID,0,
2009-12-13, 02:09:04,VALID,1008.52,VALID,0,VALID,57.0406,VALID,0,VALID,23.4389,VALID,48,VALID,0,
2009-12-13, 02:10:04,VALID,1008.52,VALID,0,VALID,57.0406,VALID,0,VALID,23.4407,VALID,48,VALID,0,
2009-12-13, 02:11:04,VALID,1008.52,VALID,0,VALID,57.0559,VALID,0,VALID,23.4407,VALID,48,VALID,0,
2009-12-13, 02:12:04,VALID,1008.5,VALID,0,VALID,57.0254,VALID,0,VALID,23.4407,VALID,48,VALID,0,
2009-12-13, 02:13:04,VALID,1008.51,VALID,0,VALID,57.033,VALID,0,VALID,23.4389,VALID,48,VALID,0,
2009-12-13, 02:14:04,VALID,1008.51,VALID,0,VALID,57.0254,VALID,0,VALID,23.4797,VALID,48,VALID,0,
2009-12-13, 02:15:04,VALID,1008.54,VALID,0,VALID,57.0178,VALID,0,VALID,23.4389,VALID,48,VALID,0,
2009-12-13, 02:16:04,VALID,1008.53,VALID,0,VALID,57.0635,VALID,0,VALID,23.4407,VALID,48,VALID,0,
2009-12-13, 02:17:04,VALID,1008.51,VALID,0,VALID,57.0559,VALID,0,VALID,23.4407,VALID,48,VALID,0,
2009-12-13, 02:18:04,VALID,1008.53,VALID,0,VALID,57.0406,VALID,0,VALID,23.4407,VALID,48,VALID,0,
2009-12-13, 02:19:04,VALID,1008.54,VALID,0,VALID,57.0101,VALID,0,VALID,23.4194,VALID,48,VALID,0,
2009-12-13, 02:20:04,VALID,1008.52,VALID,0,VALID,57.0025,VALID,0,VALID,23.4407,VALID,48,VALID,0,
2009-12-13, 02:21:04,VALID,1008.55,VALID,0,VALID,56.9949,VALID,0,VALID,23.4407,VALID,48,VALID,0,
2009-12-13, 02:22:04,VALID,1008.53,VALID,0,VALID,56.9034,VALID,0,VALID,23.4602,VALID,48,VALID,0,
2009-12-13, 02:23:04,VALID,1008.52,VALID,0,VALID,56.911,VALID,0,VALID,23.4584,VALID,48,VALID,0,
2009-12-13, 02:24:04,VALID,1008.51,VALID,0,VALID,56.8729,VALID,0,VALID,23.4584,VALID,48,VALID,0,
2009-12-13, 02:25:04,VALID,1008.5,VALID,0,VALID,56.8652,VALID,0,VALID,23.4584,VALID,48,VALID,0,
2009-12-13, 02:26:04,VALID,1008.5,VALID,0,VALID,56.9796,VALID,0,VALID,23.4602,VALID,48,VALID,0,
2009-12-13, 02:27:04,VALID,1008.5,VALID,0,VALID,56.9949,VALID,0,VALID,23.4389,VALID,48,VALID,0,
2009-12-13, 02:28:04,VALID,1008.5,VALID,0,VALID,56.9796,VALID,0,VALID,23.4389,VALID,110,VALID,0,
2009-12-13, 02:29:04,VALID,1008.52,VALID,0,VALID,56.9491,VALID,0,VALID,23.4584,VALID,110,VALID,0,
2009-12-13, 02:30:04,VALID,1008.51,VALID,0,VALID,56.9568,VALID,0,VALID,23.4584,VALID,110,VALID,0,
2009-12-13, 02:31:04,VALID,1008.52,VALID,0,VALID,56.911,VALID,0.105969,VALID,23.4584,VALID,110,VALID,0,
2009-12-13, 02:32:04,VALID,1008.52,VALID,0,VALID,56.8881,VALID,0,VALID,23.4584,VALID,110,VALID,0,
2009-12-13, 02:33:04,VALID,1008.52,VALID,0,VALID,56.8424,VALID,0,VALID,23.4797,VALID,91,VALID,0,
2009-12-13, 02:34:04,VALID,1008.5,VALID,0,VALID,56.8729,VALID,0,VALID,23.4389,VALID,117,VALID,0.660937,
2009-12-13, 02:35:04,VALID,1008.5,VALID,0,VALID,56.8729,VALID,0,VALID,23.4797,VALID,117,VALID,0.347656,
2009-12-13, 02:36:04,VALID,1008.48,VALID,0,VALID,56.8576,VALID,0,VALID,23.4602,VALID,117,VALID,0.297656,
2009-12-13, 02:37:04,VALID,1008.51,VALID,0,VALID,56.8729,VALID,0.105969,VALID,23.4584,VALID,96,VALID,0.266797,
2009-12-13, 02:38:04,VALID,1008.47,VALID,0,VALID,56.9568,VALID,0,VALID,23.4389,VALID,96,VALID,0.616406,
2009-12-13, 02:39:04,VALID,1008.48,VALID,0,VALID,57.0178,VALID,0,VALID,23.4,VALID,85,VALID,0.605469,
2009-12-13, 02:40:04,VALID,1008.45,VALID,0,VALID,57.0178,VALID,0.105969,VALID,23.4,VALID,84,VALID,0.756641,
2009-12-13, 02:41:04,VALID,1008.44,VALID,0,VALID,57.0406,VALID,0.105969,VALID,23.3805,VALID,84,VALID,0.600781,
2009-12-13, 02:42:04,VALID,1008.44,VALID,0,VALID,57.0483,VALID,0.105969,VALID,23.361,VALID,86,VALID,0.723828,
2009-12-13, 02:43:04,VALID,1008.44,VALID,0,VALID,57.0406,VALID,0,VALID,23.3433,VALID,85,VALID,0.779688,
2009-12-13, 02:44:04,VALID,1008.42,VALID,0,VALID,57.0559,VALID,0,VALID,23.322,VALID,91,VALID,1.04922,
2009-12-13, 02:45:04,VALID,1008.44,VALID,0,VALID,57.0711,VALID,0,VALID,23.2831,VALID,96,VALID,0.783984,
2009-12-13, 02:46:04,VALID,1008.43,VALID,0,VALID,57.0788,VALID,0,VALID,23.3043,VALID,84,VALID,0.664453,
2009-12-13, 02:47:04,VALID,1008.44,VALID,0,VALID,57.0483,VALID,0,VALID,23.2831,VALID,86,VALID,0.462891,
2009-12-13, 02:48:04,VALID,1008.46,VALID,0,VALID,57.094,VALID,0,VALID,23.2441,VALID,92,VALID,0.726172,
2009-12-13, 02:49:04,VALID,1008.43,VALID,0,VALID,57.0025,VALID,0,VALID,23.2441,VALID,85,VALID,0.590234,
2009-12-13, 02:50:04,VALID,1008.41,VALID,0,VALID,57.0483,VALID,0,VALID,23.2264,VALID,80,VALID,1.01719,
2009-12-13, 02:51:04,VALID,1008.4,VALID,0,VALID,57.0635,VALID,0,VALID,23.2264,VALID,79,VALID,0.920703,
2009-12-13, 02:52:04,VALID,1008.39,VALID,0,VALID,57.0864,VALID,0,VALID,23.2264,VALID,78,VALID,0.869922,
2009-12-13, 02:53:04,VALID,1008.39,VALID,0,VALID,57.1016,VALID,0,VALID,23.1662,VALID,65,VALID,0.791406,
2009-12-13, 02:54:04,VALID,1008.39,VALID,0,VALID,57.094,VALID,0,VALID,23.1857,VALID,73,VALID,0.870703,
2009-12-13, 02:55:04,VALID,1008.4,VALID,0,VALID,57.094,VALID,0,VALID,23.1857,VALID,94,VALID,0.883984,
2009-12-13, 02:56:04,VALID,1008.4,VALID,0,VALID,57.1093,VALID,0.105969,VALID,23.2069,VALID,77,VALID,0.688672,
2009-12-13, 02:57:04,VALID,1008.39,VALID,0,VALID,57.1398,VALID,0,VALID,23.1662,VALID,67,VALID,0.614844,
2009-12-13, 02:58:04,VALID,1008.37,VALID,0,VALID,57.1321,VALID,0,VALID,23.1662,VALID,80,VALID,0.698438,
2009-12-13, 02:59:04,VALID,1008.38,VALID,0,VALID,57.1016,VALID,0,VALID,23.1874,VALID,72,VALID,0.453906,
2009-12-13, 03:00:04,VALID,1008.36,VALID,0,VALID,57.1245,VALID,0,VALID,23.1662,VALID,78,VALID,0.641797,
2009-12-13, 03:01:04,VALID,1008.35,VALID,0,VALID,57.1474,VALID,0,VALID,23.1874,VALID,79,VALID,0.835156,
2009-12-13, 03:02:04,VALID,1008.32,VALID,0,VALID,57.1474,VALID,0.105969,VALID,23.1467,VALID,59,VALID,0.5,
2009-12-13, 03:03:04,VALID,1008.32,VALID,0,VALID,57.155,VALID,0.105969,VALID,23.1272,VALID,68,VALID,0.713281,
2009-12-13, 03:04:04,VALID,1008.35,VALID,0,VALID,57.0635,VALID,0,VALID,23.1485,VALID,77,VALID,0.717969,
2009-12-13, 03:05:04,VALID,1008.34,VALID,0,VALID,57.0559,VALID,0.105969,VALID,23.1485,VALID,54,VALID,0.425391,
2009-12-13, 03:06:04,VALID,1008.32,VALID,0,VALID,57.0406,VALID,0,VALID,23.1272,VALID,64,VALID,0.538672,
2009-12-13, 03:07:04,VALID,1008.31,VALID,0,VALID,57.0406,VALID,0,VALID,23.1467,VALID,78,VALID,0.313672,
2009-12-13, 03:08:04,VALID,1008.33,VALID,0,VALID,57.0483,VALID,0,VALID,23.1485,VALID,78,VALID,0.398047,
2009-12-13, 03:09:04,VALID,1008.32,VALID,0,VALID,57.0483,VALID,0,VALID,23.1272,VALID,78,VALID,0.202734,
2009-12-13, 03:10:04,VALID,1008.33,VALID,0,VALID,57.1016,VALID,0.105969,VALID,23.1272,VALID,82,VALID,0.739453,
2009-12-13, 03:11:04,VALID,1008.33,VALID,0,VALID,57.0635,VALID,0,VALID,23.1272,VALID,60,VALID,0.65625,
2009-12-13, 03:12:04,VALID,1008.28,VALID,0,VALID,57.0635,VALID,0,VALID,23.1485,VALID,91,VALID,0.713281,
2009-12-13, 03:13:04,VALID,1008.28,VALID,0,VALID,57.0483,VALID,0.105969,VALID,23.1679,VALID,90,VALID,0.266797,
2009-12-13, 03:14:04,VALID,1008.25,VALID,0,VALID,57.0711,VALID,0.105969,VALID,23.1485,VALID,99,VALID,0.399609,
2009-12-13, 03:15:04,VALID,1008.24,VALID,0,VALID,57.0788,VALID,0,VALID,23.1077,VALID,99,VALID,0.223438,
2009-12-13, 03:16:04,VALID,1008.21,VALID,0,VALID,57.0711,VALID,0,VALID,23.1077,VALID,99,VALID,0.282422,
2009-12-13, 03:17:04,VALID,1008.22,VALID,0,VALID,57.1321,VALID,0,VALID,23.1077,VALID,99,VALID,0.0183594,
2009-12-13, 03:18:04,VALID,1008.21,VALID,0,VALID,57.1093,VALID,0,VALID,23.1095,VALID,99,VALID,0.2,
2009-12-13, 03:19:04,VALID,1008.22,VALID,0,VALID,57.1321,VALID,0,VALID,23.1077,VALID,99,VALID,0,
2009-12-13, 03:20:04,VALID,1008.2,VALID,0,VALID,57.0864,VALID,0,VALID,23.1272,VALID,97,VALID,0.0476562,
2009-12-13, 03:21:04,VALID,1008.22,VALID,0,VALID,57.1093,VALID,0,VALID,23.129,VALID,91,VALID,0.334766,
2009-12-13, 03:22:04,VALID,1008.22,VALID,0,VALID,57.1169,VALID,0.105969,VALID,23.1485,VALID,89,VALID,0.346484,
2009-12-13, 03:23:04,VALID,1008.21,VALID,0,VALID,57.1016,VALID,0,VALID,23.1077,VALID,87,VALID,0.442187,
2009-12-13, 03:24:04,VALID,1008.19,VALID,0,VALID,57.1016,VALID,0,VALID,23.129,VALID,78,VALID,0.982031,
2009-12-13, 03:25:04,VALID,1008.18,VALID,0,VALID,57.1398,VALID,0.105969,VALID,23.0883,VALID,88,VALID,0.836328,
2009-12-13, 03:26:04,VALID,1008.2,VALID,0,VALID,57.1321,VALID,0,VALID,23.09,VALID,77,VALID,1.01445,
2009-12-13, 03:27:04,VALID,1008.17,VALID,0,VALID,57.1703,VALID,0,VALID,23.0918,VALID,80,VALID,0.622656,
2009-12-13, 03:28:04,VALID,1008.16,VALID,0,VALID,57.1703,VALID,0,VALID,23.0705,VALID,90,VALID,0.845312,
2009-12-13, 03:29:04,VALID,1008.17,VALID,0,VALID,57.216,VALID,0,VALID,23.0511,VALID,93,VALID,0.559375,
2009-12-13, 03:30:04,VALID,1008.15,VALID,0,VALID,57.1626,VALID,0,VALID,23.0723,VALID,94,VALID,0.770703,
2009-12-13, 03:31:04,VALID,1008.15,VALID,0,VALID,57.2008,VALID,0,VALID,23.0511,VALID,79,VALID,0.941016,
2009-12-13, 03:32:04,VALID,1008.16,VALID,0,VALID,57.1703,VALID,0,VALID,23.0511,VALID,73,VALID,0.916797,
2009-12-13, 03:33:04,VALID,1008.16,VALID,0,VALID,57.2008,VALID,0,VALID,23.0316,VALID,72,VALID,0.873047,
2009-12-13, 03:34:04,VALID,1008.14,VALID,0,VALID,57.2084,VALID,0,VALID,23.0528,VALID,67,VALID,1.00312,
2009-12-13, 03:35:04,VALID,1008.12,VALID,0,VALID,57.2313,VALID,0,VALID,23.0316,VALID,89,VALID,0.326953,
2009-12-13, 03:36:04,VALID,1008.11,VALID,0,VALID,57.216,VALID,0,VALID,23.0121,VALID,89,VALID,0.171484,
2009-12-13, 03:37:04,VALID,1008.11,VALID,0,VALID,57.2542,VALID,0,VALID,22.9926,VALID,91,VALID,0.71875,
2009-12-13, 03:38:04,VALID,1008.09,VALID,0,VALID,57.2618,VALID,0,VALID,23.0138,VALID,94,VALID,0.625391,
2009-12-13, 03:39:04,VALID,1008.06,VALID,0,VALID,57.277,VALID,0,VALID,22.9731,VALID,81,VALID,0.658203,
2009-12-13, 03:40:04,VALID,1008.07,VALID,0,VALID,57.2618,VALID,0,VALID,22.9926,VALID,94,VALID,0.260938,
2009-12-13, 03:41:04,VALID,1008.03,VALID,0,VALID,57.2542,VALID,0.105969,VALID,22.9909,VALID,92,VALID,0.642969,
2009-12-13, 03:42:04,VALID,1008.07,VALID,0,VALID,57.2389,VALID,0.105969,VALID,22.9891,VALID,91,VALID,0.530078,
2009-12-13, 03:43:04,VALID,1008.03,VALID,0,VALID,57.2313,VALID,0.105969,VALID,23.0103,VALID,89,VALID,0.614453,
2009-12-13, 03:44:04,VALID,1008.03,VALID,0,VALID,57.2389,VALID,0.105969,VALID,23.0103,VALID,91,VALID,0.485547,
2009-12-13, 03:45:04,VALID,1008.02,VALID,0,VALID,57.2237,VALID,0.105969,VALID,22.9909,VALID,89,VALID,0.803906,
2009-12-13, 03:46:04,VALID,1008.01,VALID,0,VALID,57.2084,VALID,0.105969,VALID,22.9714,VALID,91,VALID,0.763281,
2009-12-13, 03:47:04,VALID,1007.99,VALID,0,VALID,57.2465,VALID,0.105969,VALID,22.9519,VALID,91,VALID,0.472656,
2009-12-13, 03:48:04,VALID,1007.96,VALID,0,VALID,57.2313,VALID,0.105969,VALID,22.9519,VALID,91,VALID,0.162891,